• Bienvenue sur Pilotes Québec!
  • Bienvenue sur le site de Pilotes Québec, la nouvelle communauté des pilotes et aviateurs du Québec.
  • L'image de cette semaine nous vient de Denis Morissette!  La photo a été prise à Miguasha, en Gaspésie, lors d'un atterrissage par bon vent de travers et fort vent rabattant en finale.
  • Calendrier des activités
  • sujets récents au forum...
  • Les nouvelles en bref...

Connexion


J'ai oublié mon mot de passe
Renvoyer l'e-mail de confirmation
 

Publicité

Vous aimeriez afficher une publicité pour joindre la communauté des pilotes professionnels et privé du Québec?  Cliquez ici pour en savoir plus!

Conditions actuelles

Click for Quebec, Quebec Forecast

METAR - Québec


2015/07/07 02:00
CYQB 070200Z 33002KT 15SM SCT250 20/17 A3003 RMK CI3 SLP170 DENSITY ALT 700FT

TAF - Québec


2015/07/06 18:42
TAF CYQB 061738Z 0618/0718 23012KT P6SM FEW040 SCT200
BECMG 0623/0701 22005KT
FM071500 21008KT P6SM BKN030
BECMG 0715/0717 21012G22KT
RMK NXT FCST BY 070000Z